Weather History for Saranac Lake, NY

Change the Weather History Date:

Saturday, February 9, 2013

  Actual Average Record
Temperature  
Mean Temperature -2 °F 14 °F  
Max Temperature 16 °F 27 °F 49 °F (1990)
Min Temperature -20 °F 1 °F -25 °F (1959)
Degree Days  
Heating Degree Days 67 51  
Month to date heating degree days 548 465  
Since 1 July heating degree days 5457 5767  
Moisture  
Dew Point -1 °F    
Average Humidity 65    
Maximum Humidity 88    
Minimum Humidity 42    
Precipitation  
Precipitation T in 0.07 in 0.50 in (1958)
Month to date precipitation 0.28 0.54  
Year to date precipitation 1.51 2.67  
Sea Level Pressure  
Sea Level Pressure 30.11 in    
Wind  
Wind Speed 5 mph (NNE)    
Max Wind Speed 15 mph    
Max Gust Speed 18 mph    
Visibility 7 miles    
Events Snow    
T = Trace of Precipitation, MM = Missing Value Source: NWS Daily Summary

Daily Weather History Graph

Daily Weather History Graph

Search for Another Location

Airport:

Trip Planner

Search our weather history database for the weather conditions in past years. The results will help you decide how hot, cold, wet, or windy it might be!

Date:

Astronomy

Feb. 09, 2013 Rise Set
Actual Time 7:04 AM EST 5:17 PM EST
Civil Twilight 6:34 AM EST 5:48 PM EST
Nautical Twilight 6:00 AM EST 6:22 PM EST
Astronomical Twilight 5:26 AM EST 6:56 PM EST
Moon 6:14 AM EST (2/9) 4:58 PM EST (2/9)
Length of Visible Light 11h 13m
Length of Day
10h 13m
Waning Crescent, 0% of the Moon is Illuminated
Feb 9
Waning Crescent
Feb 10
New
Feb 17
First Quarter
Feb 25
Full
Mar 4
Last Quarter

Hourly Weather History & Observations

Time (EST) Temp. Windchill Dew Point Humidity Pressure Visibility Wind Dir Wind Speed Gust Speed Precip Events Conditions
12:17 AM 10.4 °F -2.4 °F 8.6 °F 92% 29.86 in 1.8 mi NNE 9.2 mph - 0.00 in Snow Light Snow
12:27 AM 10.4 °F -0.4 °F 8.6 °F 92% 29.86 in 2.5 mi North 6.9 mph - 0.00 in Snow Light Snow
12:39 AM 10.4 °F -2.4 °F 6.8 °F 85% 29.87 in 3.0 mi NNE 9.2 mph - 0.00 in Snow Light Snow
12:51 AM 10.0 °F -2.9 °F 6.1 °F 84% 29.96 in 3.0 mi NNE 9.2 mph - 0.00 in Snow Light Snow
1:18 AM 10.4 °F -4.1 °F 6.8 °F 85% 29.88 in 1.8 mi North 11.5 mph 16.1 mph 0.00 in Snow Light Snow
1:26 AM 10.4 °F -4.1 °F 5.0 °F 79% 29.89 in 2.0 mi NNE 11.5 mph - 0.00 in Snow Light Snow
1:51 AM 8.1 °F -6.2 °F 3.9 °F 83% 30.01 in 2.5 mi North 10.4 mph - 0.00 in Snow Light Snow
2:07 AM 8.6 °F -7.0 °F 3.2 °F 79% 29.91 in 2.5 mi NNE 12.7 mph - 0.00 in Snow Light Snow
2:18 AM 8.6 °F -6.3 °F 3.2 °F 79% 29.91 in 2.0 mi NNE 11.5 mph - 0.00 in Snow Light Snow
2:51 AM 7.0 °F -6.6 °F 3.0 °F 84% 30.01 in 2.5 mi NNE 9.2 mph - 0.00 in Snow Light Snow
3:00 AM 6.8 °F -7.8 °F 3.2 °F 85% 29.92 in 3.0 mi NNE 10.4 mph - 0.00 in Snow Light Snow
3:51 AM 6.1 °F -7.8 °F 1.0 °F 80% 30.04 in 9.0 mi NNE 9.2 mph - 0.00 in   Overcast
4:11 AM 5.0 °F -8.1 °F 1.4 °F 85% 29.94 in 10.0 mi NNE 8.1 mph - N/A   Scattered Clouds
4:51 AM 5.0 °F -5.6 °F 1.0 °F 84% 30.05 in 5.0 mi North 5.8 mph - 0.00 in Snow Light Snow
5:51 AM 5.0 °F -2.1 °F 1.0 °F 84% 30.09 in 3.0 mi NNE 3.5 mph - 0.00 in Snow Light Snow
6:51 AM 3.9 °F -8.2 °F -0.9 °F 80% 30.13 in 10.0 mi Variable 6.9 mph - 0.00 in   Overcast
7:51 AM 3.9 °F -6.9 °F -2.0 °F 76% 30.15 in 10.0 mi NNE 5.8 mph - N/A   Clear
8:51 AM 5.0 °F -9.1 °F -2.0 °F 73% 30.17 in 10.0 mi North 9.2 mph - N/A   Clear
9:51 AM 6.1 °F -7.8 °F -2.0 °F 69% 30.19 in 10.0 mi NNE 9.2 mph - N/A   Clear
11:51 AM 12.0 °F -0.4 °F -2.9 °F 51% 30.20 in 10.0 mi North 9.2 mph 18.4 mph N/A   Clear
12:51 PM 12.9 °F 2.6 °F -0.9 °F 54% 30.20 in 10.0 mi Variable 6.9 mph - N/A   Clear
1:51 PM 15.1 °F 6.4 °F -0.9 °F 49% 30.21 in 10.0 mi Variable 5.8 mph - N/A   Clear
2:51 PM 15.1 °F 6.4 °F -4.0 °F 43% 30.23 in 10.0 mi Variable 5.8 mph - N/A   Clear
3:51 PM 15.1 °F 6.4 °F -2.9 °F 45% 30.24 in 10.0 mi Variable 5.8 mph - N/A   Clear
4:51 PM 12.0 °F 2.7 °F -2.0 °F 53% 30.26 in 10.0 mi NW 5.8 mph - N/A   Clear
5:51 PM 3.0 °F - -4.0 °F 73% 30.31 in 10.0 mi Calm Calm - N/A   Clear
6:51 PM -0.0 °F - -4.0 °F 83% 30.34 in 10.0 mi Calm Calm - N/A   Clear
8:51 PM -9.9 °F - -14.1 °F 82% 30.38 in 8.0 mi Calm Calm - N/A   Clear
9:51 PM -16.1 °F - -20.0 °F 82% 30.39 in 10.0 mi Calm Calm - N/A   Clear
10:51 PM -15.0 °F - -20.9 °F 75% 30.39 in 10.0 mi Calm Calm - N/A   Clear
11:51 PM -18.9 °F - -24.0 °F 78% 30.40 in 10.0 mi Calm Calm - N/A   Clear